DLH4AM EDDM-LROP

Flight info

Callsign DLH4AM
Flight time 1h 31m
Altitude 41000
Route KIRDI2Q KIRDI DCT BUWOQ DCT OBFEZ DCT STEIN DCT TEGRI DCT LAMIT DCT TOSVI
Aircraft A359/H-SDE2E3GHIJ3J4J5LM1ORWXY/LB1D1

Departure

Time 2026-04-30 20:45
Airport Munich Airport (EDDM)

Arrival

Time 2026-04-30 22:17
Airport Bucharest Henri Coandă International Airport (LROP)
Time Latitude Longitude Altitude Speed Heading
2026-04-30 19:52 48.35466 11.79726 1473 ft 0 kts 84°
2026-04-30 20:29 48.35463 11.79691 1470 ft 4 kts 83°
2026-04-30 20:30 48.35441 11.79594 1461 ft 4 kts
2026-04-30 20:30 48.35415 11.79598 1461 ft 0 kts 354°
2026-04-30 20:34 48.35436 11.79595 1461 ft 5 kts 354°
2026-04-30 20:34 48.35567 11.79573 1473 ft 13 kts 354°
2026-04-30 20:35 48.35662 11.79557 1467 ft 15 kts 353°
2026-04-30 20:35 48.35751 11.79542 1463 ft 14 kts 353°
2026-04-30 20:35 48.35889 11.79517 1467 ft 9 kts 352°
2026-04-30 20:36 48.35965 11.79502 1463 ft 13 kts 352°
2026-04-30 20:36 48.36035 11.79490 1469 ft 9 kts 354°
2026-04-30 20:36 48.36097 11.79363 1468 ft 11 kts 265°
2026-04-30 20:37 48.36088 11.79238 1466 ft 13 kts 262°
2026-04-30 20:37 48.36074 11.79087 1464 ft 16 kts 263°
2026-04-30 20:37 48.36061 11.78918 1463 ft 17 kts 264°
2026-04-30 20:37 48.36047 11.78729 1470 ft 19 kts 263°
2026-04-30 20:38 48.36032 11.78520 1465 ft 18 kts 263°
2026-04-30 20:38 48.36018 11.78355 1464 ft 16 kts 263°
2026-04-30 20:38 48.36004 11.78175 1464 ft 18 kts 263°
2026-04-30 20:39 48.35978 11.77843 1462 ft 12 kts 263°
2026-04-30 20:39 48.35967 11.77705 1473 ft 15 kts 263°
2026-04-30 20:39 48.35954 11.77537 1463 ft 17 kts 263°
2026-04-30 20:40 48.35925 11.77150 1466 ft 16 kts 263°
2026-04-30 20:40 48.35911 11.76975 1473 ft 18 kts 264°
2026-04-30 20:40 48.35964 11.76831 1462 ft 11 kts 334°
2026-04-30 20:41 48.36131 11.76797 1463 ft 11 kts 353°
2026-04-30 20:41 48.36219 11.76782 1465 ft 15 kts 353°
2026-04-30 20:41 48.36268 11.76783 1462 ft 2 kts 28°
2026-04-30 20:41 48.36280 11.76817 1461 ft 5 kts 73°
2026-04-30 20:42 48.36282 11.76836 1459 ft 0 kts 82°
2026-04-30 20:44 48.36291 11.76943 1464 ft 32 kts 83°
2026-04-30 20:45 48.36448 11.79024 1473 ft 159 kts 84°
2026-04-30 20:45 48.36576 11.80685 2170 ft 156 kts 84°
2026-04-30 20:45 48.36701 11.82289 2979 ft 159 kts 85°
2026-04-30 20:46 48.36992 11.88351 4457 ft 217 kts 86°
2026-04-30 20:46 48.37106 11.90627 5338 ft 221 kts 86°
2026-04-30 20:47 48.37569 11.95350 6911 ft 236 kts 81°
2026-04-30 20:47 48.37765 11.97831 7761 ft 240 kts 88°
2026-04-30 20:48 48.36644 12.02673 9333 ft 264 kts 119°
2026-04-30 20:48 48.35636 12.05037 10197 ft 271 kts 120°
2026-04-30 20:48 48.34602 12.07437 11067 ft 276 kts 119°
2026-04-30 20:48 48.33551 12.09897 11943 ft 281 kts 118°
2026-04-30 20:49 48.32495 12.12384 12854 ft 285 kts 118°
2026-04-30 20:49 48.31442 12.14877 13733 ft 289 kts 117°
2026-04-30 20:49 48.30725 12.16575 14308 ft 292 kts 117°
2026-04-30 20:50 48.28160 12.22653 16098 ft 300 kts 116°
2026-04-30 20:50 48.27021 12.25351 16891 ft 304 kts 116°
2026-04-30 20:50 48.26266 12.27138 17431 ft 307 kts 116°
2026-04-30 20:50 48.25117 12.29853 18203 ft 310 kts 116°
2026-04-30 20:51 48.24046 12.32662 18928 ft 310 kts 108°
2026-04-30 20:51 48.23350 12.39013 19825 ft 321 kts 86°
2026-04-30 20:51 48.23326 12.43605 20229 ft 343 kts 86°
2026-04-30 20:52 48.23311 12.46016 20447 ft 353 kts 86°
2026-04-30 20:52 48.23278 12.49775 20792 ft 368 kts 86°
2026-04-30 20:52 48.23078 12.57625 21979 ft 384 kts 91°
2026-04-30 20:53 48.22736 12.61633 22677 ft 390 kts 92°
2026-04-30 20:53 48.22351 12.65684 23377 ft 394 kts 92°
2026-04-30 20:53 48.21960 12.69770 24062 ft 398 kts 92°
2026-04-30 20:54 48.21169 12.78030 25333 ft 402 kts 92°
2026-04-30 20:54 48.20857 12.82190 25964 ft 401 kts 87°
2026-04-30 20:54 48.20789 12.86353 26596 ft 400 kts 84°
2026-04-30 20:55 48.20889 12.94694 27990 ft 400 kts 82°
2026-04-30 20:55 48.20974 12.98876 28741 ft 400 kts 82°
2026-04-30 20:55 48.21058 13.03049 29324 ft 402 kts 82°
2026-04-30 20:56 48.21201 13.11442 30433 ft 407 kts 82°
2026-04-30 20:56 48.21263 13.15757 30859 ft 411 kts 82°
2026-04-30 20:56 48.21375 13.24400 31574 ft 418 kts 83°
2026-04-30 20:57 48.21427 13.28778 31956 ft 422 kts 83°
2026-04-30 20:57 48.21477 13.33132 32308 ft 425 kts 83°
2026-04-30 20:57 48.21527 13.37641 32696 ft 427 kts 82°
2026-04-30 20:58 48.21619 13.46540 33435 ft 431 kts 82°
2026-04-30 20:58 48.21663 13.51034 33882 ft 431 kts 82°
2026-04-30 20:58 48.21705 13.55522 34294 ft 431 kts 82°
2026-04-30 20:58 48.21745 13.60019 34645 ft 432 kts 83°
2026-04-30 20:59 48.21825 13.69075 35176 ft 436 kts 83°
2026-04-30 20:59 48.21863 13.73622 35458 ft 438 kts 83°
2026-04-30 21:00 48.21933 13.82798 36013 ft 441 kts 83°
2026-04-30 21:00 48.21982 13.92031 36510 ft 446 kts 85°
2026-04-30 21:01 48.21099 14.01316 36983 ft 462 kts 99°
2026-04-30 21:01 48.20024 14.05892 37213 ft 468 kts 105°
2026-04-30 21:01 48.17463 14.14928 37706 ft 472 kts 108°
2026-04-30 21:02 48.16119 14.19436 37965 ft 473 kts 108°
2026-04-30 21:02 48.14771 14.23934 38243 ft 474 kts 108°
2026-04-30 21:02 48.13420 14.28452 38441 ft 476 kts 109°
2026-04-30 21:02 48.12069 14.32993 38662 ft 477 kts 109°
2026-04-30 21:03 48.10722 14.37535 38913 ft 478 kts 109°
2026-04-30 21:03 48.09375 14.42082 39131 ft 478 kts 109°
2026-04-30 21:03 48.08026 14.46639 39305 ft 479 kts 109°
2026-04-30 21:03 48.06692 14.51139 39476 ft 480 kts 109°
2026-04-30 21:04 48.05334 14.55713 39644 ft 480 kts 109°
2026-04-30 21:04 48.03977 14.60274 39849 ft 481 kts 109°
2026-04-30 21:04 48.01240 14.69442 40117 ft 484 kts 110°
2026-04-30 21:05 47.99866 14.74032 40284 ft 485 kts 110°
2026-04-30 21:05 47.98484 14.78636 40439 ft 485 kts 110°
2026-04-30 21:05 47.97105 14.83223 40606 ft 486 kts 110°
2026-04-30 21:05 47.95718 14.87831 40757 ft 486 kts 110°
2026-04-30 21:06 47.94328 14.92438 40915 ft 487 kts 110°
2026-04-30 21:06 47.92937 14.97041 41063 ft 487 kts 110°
2026-04-30 21:06 47.91537 15.01662 41217 ft 488 kts 110°
2026-04-30 21:06 47.90139 15.06272 41336 ft 489 kts 110°
2026-04-30 21:07 47.87325 15.15522 41434 ft 490 kts 110°
2026-04-30 21:07 47.84520 15.24704 41433 ft 490 kts 111°
2026-04-30 21:08 47.81695 15.33921 41434 ft 490 kts 111°
2026-04-30 21:08 47.78890 15.43142 41440 ft 490 kts 110°
2026-04-30 21:09 47.76099 15.52397 41443 ft 489 kts 110°
2026-04-30 21:09 47.73302 15.61628 41443 ft 489 kts 110°
2026-04-30 21:10 47.70494 15.70840 41443 ft 490 kts 110°
2026-04-30 21:10 47.67676 15.80042 41445 ft 490 kts 110°
2026-04-30 21:11 47.64847 15.89246 41439 ft 490 kts 110°
2026-04-30 21:11 47.62012 15.98434 41434 ft 490 kts 111°
2026-04-30 21:12 47.59186 16.07563 41434 ft 490 kts 111°
2026-04-30 21:12 47.56334 16.16746 41439 ft 491 kts 111°
2026-04-30 21:13 47.53468 16.25936 41414 ft 492 kts 111°
2026-04-30 21:13 47.50596 16.35110 41431 ft 492 kts 111°
2026-04-30 21:14 47.47713 16.44286 41412 ft 492 kts 111°
2026-04-30 21:14 47.44825 16.53448 41400 ft 492 kts 111°
2026-04-30 21:15 47.42170 16.62665 41393 ft 491 kts 107°
2026-04-30 21:15 47.39884 16.72150 41393 ft 491 kts 105°
2026-04-30 21:16 47.37653 16.81657 41396 ft 491 kts 105°
2026-04-30 21:16 47.35412 16.91188 41396 ft 492 kts 106°
2026-04-30 21:17 47.33150 17.00730 41386 ft 493 kts 106°
2026-04-30 21:17 47.30876 17.10259 41383 ft 493 kts 106°
2026-04-30 21:18 47.28589 17.19801 41377 ft 493 kts 106°
2026-04-30 21:18 47.26296 17.29326 41377 ft 493 kts 106°
2026-04-30 21:19 47.23994 17.38851 41376 ft 494 kts 106°
2026-04-30 21:19 47.21700 17.48302 41375 ft 494 kts 106°
2026-04-30 21:20 47.19382 17.57810 41376 ft 494 kts 107°
2026-04-30 21:20 47.17054 17.67319 41375 ft 495 kts 107°
2026-04-30 21:21 47.14721 17.76808 41376 ft 495 kts 107°
2026-04-30 21:22 47.11193 17.91083 41372 ft 495 kts 107°
2026-04-30 21:23 47.06467 18.10062 41371 ft 496 kts 107°
2026-04-30 21:23 47.02913 18.24230 41369 ft 496 kts 107°
2026-04-30 21:24 47.00523 18.33711 41369 ft 496 kts 107°
2026-04-30 21:24 46.98124 18.43184 41373 ft 497 kts 107°
2026-04-30 21:25 46.94505 18.57406 41376 ft 497 kts 107°
2026-04-30 21:26 46.90865 18.71617 41380 ft 497 kts 108°
2026-04-30 21:27 46.87205 18.85822 41371 ft 498 kts 108°
2026-04-30 21:27 46.84749 18.95304 41366 ft 498 kts 108°
2026-04-30 21:28 46.81068 19.09445 41381 ft 499 kts 108°
2026-04-30 21:29 46.77346 19.23654 41366 ft 500 kts 108°
2026-04-30 21:30 46.71112 19.47262 41373 ft 500 kts 109°
2026-04-30 21:31 46.64805 19.70906 41366 ft 501 kts 109°
2026-04-30 21:32 46.60995 19.85077 41357 ft 501 kts 109°
2026-04-30 21:32 46.58443 19.94523 41349 ft 502 kts 109°
2026-04-30 21:33 46.54600 20.08670 41344 ft 502 kts 109°
2026-04-30 21:34 46.52027 20.18100 41341 ft 502 kts 109°
2026-04-30 21:34 46.48170 20.32162 41338 ft 502 kts 109°
2026-04-30 21:35 46.45578 20.41567 41338 ft 502 kts 109°
2026-04-30 21:35 46.42979 20.50960 41357 ft 502 kts 110°
2026-04-30 21:36 46.40369 20.60354 41338 ft 503 kts 110°
2026-04-30 21:37 46.35566 20.77550 41338 ft 503 kts 110°
2026-04-30 21:37 46.32932 20.86927 41346 ft 503 kts 110°
2026-04-30 21:38 46.30294 20.96285 41327 ft 504 kts 110°
2026-04-30 21:38 46.27189 21.07183 41320 ft 504 kts 112°
2026-04-30 21:39 46.23600 21.15933 41319 ft 507 kts 122°
2026-04-30 21:39 46.20244 21.22878 41323 ft 508 kts 124°
2026-04-30 21:40 46.16116 21.31180 41320 ft 509 kts 124°
2026-04-30 21:40 46.11983 21.39474 41320 ft 509 kts 124°
2026-04-30 21:41 46.07860 21.47767 41322 ft 509 kts 124°
2026-04-30 21:41 46.03736 21.56057 41325 ft 510 kts 124°
2026-04-30 21:42 45.99598 21.64354 41328 ft 511 kts 124°
2026-04-30 21:42 45.95445 21.72653 41330 ft 511 kts 124°
2026-04-30 21:43 45.91290 21.80931 41327 ft 511 kts 124°
2026-04-30 21:43 45.87124 21.89207 41325 ft 512 kts 125°
2026-04-30 21:44 45.82971 21.97433 41333 ft 513 kts 125°
2026-04-30 21:44 45.78779 22.05712 41336 ft 513 kts 125°
2026-04-30 21:45 45.74582 22.13975 41338 ft 513 kts 125°
2026-04-30 21:45 45.70381 22.22223 41345 ft 513 kts 125°
2026-04-30 21:46 45.66171 22.30464 41350 ft 513 kts 125°
2026-04-30 21:46 45.61948 22.38707 41349 ft 513 kts 125°
2026-04-30 21:47 45.57729 22.46920 41357 ft 513 kts 126°
2026-04-30 21:47 45.53506 22.55116 41354 ft 513 kts 126°
2026-04-30 21:48 45.49272 22.63310 41356 ft 513 kts 126°
2026-04-30 21:48 45.45058 22.71441 41360 ft 513 kts 126°
2026-04-30 21:49 45.40806 22.79621 41367 ft 514 kts 126°
2026-04-30 21:49 45.36549 22.87786 41365 ft 514 kts 126°
2026-04-30 21:50 45.32289 22.95935 41367 ft 514 kts 126°
2026-04-30 21:50 45.28017 23.04086 41377 ft 514 kts 127°
2026-04-30 21:51 45.23742 23.12218 41372 ft 514 kts 127°
2026-04-30 21:51 45.19463 23.20333 41376 ft 514 kts 127°
2026-04-30 21:52 45.15172 23.28448 41328 ft 514 kts 127°
2026-04-30 21:52 45.13071 23.32415 41129 ft 506 kts 127°
2026-04-30 21:52 45.11111 23.36545 40372 ft 508 kts 117°
2026-04-30 21:53 45.09766 23.41187 39523 ft 512 kts 105°
2026-04-30 21:53 45.08790 23.46052 38660 ft 516 kts 104°
2026-04-30 21:53 45.07859 23.50962 37845 ft 516 kts 104°
2026-04-30 21:53 45.06934 23.55861 37144 ft 515 kts 104°
2026-04-30 21:54 45.06010 23.60750 36444 ft 513 kts 104°
2026-04-30 21:54 45.05088 23.65614 35733 ft 513 kts 104°
2026-04-30 21:54 45.04161 23.70498 34982 ft 514 kts 104°
2026-04-30 21:54 45.03230 23.75384 34109 ft 516 kts 104°
2026-04-30 21:55 45.02292 23.80292 33186 ft 517 kts 104°
2026-04-30 21:55 45.01352 23.85200 32308 ft 516 kts 104°
2026-04-30 21:55 45.00413 23.90091 31418 ft 516 kts 104°
2026-04-30 21:55 44.99471 23.94983 30488 ft 516 kts 104°
2026-04-30 21:56 44.98529 23.99869 29591 ft 513 kts 104°
2026-04-30 21:56 44.97592 24.04707 28858 ft 507 kts 103°
2026-04-30 21:56 44.96677 24.09422 28198 ft 501 kts 103°
2026-04-30 21:56 44.95759 24.14145 27531 ft 495 kts 103°
2026-04-30 21:57 44.94850 24.18807 26873 ft 490 kts 103°
2026-04-30 21:57 44.93949 24.23421 26209 ft 486 kts 103°
2026-04-30 21:57 44.93053 24.27994 25550 ft 481 kts 103°
2026-04-30 21:57 44.92166 24.32517 24906 ft 477 kts 103°
2026-04-30 21:58 44.91283 24.37005 24271 ft 473 kts 103°
2026-04-30 21:58 44.90405 24.41460 23557 ft 469 kts 103°
2026-04-30 21:58 44.89536 24.45857 22891 ft 462 kts 103°
2026-04-30 21:58 44.88676 24.50197 22271 ft 456 kts 103°
2026-04-30 21:59 44.87829 24.54463 21629 ft 449 kts 102°
2026-04-30 21:59 44.86992 24.58671 21007 ft 443 kts 102°
2026-04-30 21:59 44.86164 24.62825 20383 ft 437 kts 102°
2026-04-30 22:00 44.84533 24.70982 19167 ft 427 kts 102°
2026-04-30 22:00 44.82955 24.78852 16660 ft 414 kts 102°
2026-04-30 22:00 44.82174 24.82735 15223 ft 409 kts 103°
2026-04-30 22:01 44.81395 24.86605 14253 ft 410 kts 103°
2026-04-30 22:01 44.80625 24.90407 13739 ft 399 kts 103°
2026-04-30 22:01 44.79879 24.94084 12959 ft 379 kts 103°
2026-04-30 22:01 44.79169 24.97574 12357 ft 367 kts 103°
2026-04-30 22:02 44.78477 25.00978 12060 ft 354 kts 103°
2026-04-30 22:02 44.77814 25.04230 11918 ft 337 kts 103°
2026-04-30 22:02 44.77181 25.07334 11784 ft 322 kts 104°
2026-04-30 22:02 44.76576 25.10294 11653 ft 308 kts 104°
2026-04-30 22:03 44.75997 25.13126 11503 ft 295 kts 103°
2026-04-30 22:03 44.75370 25.15816 11378 ft 285 kts 110°
2026-04-30 22:03 44.74440 25.18219 11236 ft 276 kts 120°
2026-04-30 22:03 44.73412 25.20472 11100 ft 274 kts 120°
2026-04-30 22:04 44.72373 25.22720 10884 ft 273 kts 120°
2026-04-30 22:04 44.71345 25.24945 10606 ft 271 kts 120°
2026-04-30 22:04 44.69279 25.29431 10082 ft 283 kts 120°
2026-04-30 22:05 44.68214 25.31745 9979 ft 285 kts 120°
2026-04-30 22:05 44.67138 25.34077 9504 ft 285 kts 120°
2026-04-30 22:05 44.66059 25.36413 9070 ft 283 kts 120°
2026-04-30 22:05 44.64991 25.38721 8743 ft 281 kts 120°
2026-04-30 22:06 44.63935 25.41004 8452 ft 278 kts 120°
2026-04-30 22:06 44.61839 25.45533 7825 ft 274 kts 120°
2026-04-30 22:06 44.60806 25.47763 7545 ft 272 kts 120°
2026-04-30 22:07 44.59777 25.49982 7261 ft 270 kts 119°
2026-04-30 22:07 44.58758 25.52178 6950 ft 267 kts 119°
2026-04-30 22:07 44.57746 25.54358 6653 ft 265 kts 119°
2026-04-30 22:07 44.56743 25.56516 6355 ft 264 kts 119°
2026-04-30 22:08 44.55744 25.58666 6068 ft 262 kts 119°
2026-04-30 22:08 44.54753 25.60797 5792 ft 261 kts 119°
2026-04-30 22:08 44.53792 25.62946 5378 ft 259 kts 115°
2026-04-30 22:08 44.53267 25.65293 5078 ft 246 kts 92°
2026-04-30 22:09 44.53334 25.67614 4904 ft 232 kts 79°
2026-04-30 22:09 44.53562 25.69798 4736 ft 221 kts 79°
2026-04-30 22:09 44.53771 25.71887 4556 ft 213 kts 80°
2026-04-30 22:09 44.53939 25.73906 4407 ft 204 kts 81°
2026-04-30 22:10 44.54085 25.75839 4267 ft 195 kts 81°
2026-04-30 22:10 44.54221 25.77663 4170 ft 182 kts 81°
2026-04-30 22:10 44.54348 25.79377 4034 ft 172 kts 81°
2026-04-30 22:10 44.54468 25.80984 3885 ft 163 kts 81°
2026-04-30 22:11 44.54696 25.84018 3458 ft 147 kts 82°
2026-04-30 22:11 44.54799 25.85398 3266 ft 137 kts 81°
2026-04-30 22:11 44.54897 25.86694 3094 ft 131 kts 81°
2026-04-30 22:12 44.54991 25.87953 2937 ft 129 kts 81°
2026-04-30 22:12 44.55085 25.89206 2789 ft 129 kts 82°
2026-04-30 22:12 44.55179 25.90465 2620 ft 130 kts 81°
2026-04-30 22:12 44.55274 25.91728 2463 ft 130 kts 82°
2026-04-30 22:13 44.55368 25.92986 2299 ft 130 kts 82°
2026-04-30 22:13 44.55463 25.94253 2145 ft 131 kts 82°
2026-04-30 22:13 44.55559 25.95535 1974 ft 134 kts 81°
2026-04-30 22:13 44.55657 25.96838 1805 ft 135 kts 81°
2026-04-30 22:14 44.55754 25.98130 1623 ft 135 kts 82°
2026-04-30 22:14 44.55852 25.99443 1459 ft 136 kts 81°
2026-04-30 22:14 44.55946 26.00764 1280 ft 136 kts 81°
2026-04-30 22:14 44.56044 26.02089 1100 ft 138 kts 83°
2026-04-30 22:15 44.56137 26.03420 917 ft 137 kts 82°
2026-04-30 22:15 44.56250 26.04754 739 ft 138 kts 81°
2026-04-30 22:15 44.56350 26.06082 559 ft 136 kts 84°
2026-04-30 22:15 44.56445 26.07394 392 ft 136 kts 83°
2026-04-30 22:16 44.56553 26.08688 322 ft 127 kts 85°
2026-04-30 22:16 44.56626 26.09758 319 ft 80 kts 85°
2026-04-30 22:17 44.56693 26.10691 321 ft 15 kts 84°
2026-04-30 22:17 44.56723 26.10764 321 ft 7 kts 24°
2026-04-30 22:17 44.56855 26.10746 322 ft 13 kts 354°
2026-04-30 22:18 44.56947 26.10733 322 ft 10 kts 353°
2026-04-30 22:18 44.57044 26.10614 320 ft 8 kts 298°
2026-04-30 22:19 44.57062 26.10441 320 ft 0 kts 264°
2026-04-30 22:19 44.57061 26.10422 320 ft 4 kts 264°
2026-04-30 22:20 44.57056 26.10359 322 ft 8 kts 263°
2026-04-30 22:20 44.57038 26.10131 320 ft 14 kts 264°
2026-04-30 22:20 44.57029 26.10007 323 ft 11 kts 264°
2026-04-30 22:21 44.57019 26.09918 319 ft 5 kts 242°
2026-04-30 22:21 44.57002 26.09912 320 ft 2 kts 180°
2026-04-30 22:21 44.56972 26.09916 321 ft 3 kts 176°
2026-04-30 22:21 44.56950 26.09918 319 ft 2 kts 175°
2026-04-30 22:22 44.56937 26.09920 320 ft 2 kts 175°
2026-04-30 22:22 44.56935 26.09920 320 ft 0 kts 175°